This demonstration page uses our WeatherBlox Daily Observations layout. Learn more.

Left ArrowRight Arrow

Hourly Observations for July 15, 2019

Temp ( °F °C ) Dew Point ( °F °C ) Humidity (%) Winds ( mph kmh ) Pressure ( in mb ) Visibility ( mi km ) Precip ( " mm )
12:56 am 00:56 Clear 75 23.9 68 20 79 79 S 12 19 29.93 1013 10 16 0.00 0.00
1:56 am 01:56 Clear 75 23.9 68 20 79 79 S 12 19 29.93 1014 10 16 0.00 0.00
2:56 am 02:56 Clear 74 23.3 68 20 82 82 S 12 19 29.92 1013 10 16 0.00 0.00
3:56 am 03:56 Clear 72 22.2 68 20 87 87 S 6 9 29.91 1013 10 16 0.00 0.00
4:56 am 04:56 Clear 71 21.7 68 20 90 90 SSE 7 11 29.91 1013 10 16 0.00 0.00
5:56 am 05:56 Clear 70 21.1 67 19.4 90 90 SSW 7 11 29.93 1013 10 16 0.00 0.00
6:56 am 06:56 Sunny 70 21.1 68 20 93 93 S 9 15 29.93 1014 10 16 0.00 0.00
7:56 am 07:56 Sunny 74 23.3 69 20.6 85 85 SSW 12 19 29.92 1013 10 16 0.00 0.00
8:56 am 08:56 Sunny 75 23.9 69 20.6 82 82 S 13 20 29.91 1013 10 16 0.00 0.00
9:56 am 09:56 Sunny 79 26.1 70 21.1 74 74 S 12 19 29.91 1013 10 16 0.00 0.00
10:56 am 10:56 Sunny 83 28.3 72 22.2 70 70 SSW 9 15 29.91 1013 10 16 0.00 0.00
11:56 am 11:56 Sunny 85 29.4 73 22.8 68 68 S 13 20 29.90 1012 10 16 0.00 0.00
12:56 pm 12:56 Sunny 87 30.6 73 22.8 63 63 S 14 22 29.88 1012 10 16 0.00 0.00
1:56 pm 13:56 Sunny 88 31.1 73 22.8 61 61 SSW 13 20 29.88 1012 10 16 0.00 0.00
2:56 pm 14:56 Sunny 89 31.7 74 23.3 61 61 S 13 20 29.87 1012 10 16 0.00 0.00
3:56 pm 15:56 Sunny 90 32.2 74 23.3 59 59 S 14 22 29.85 1011 10 16 0.00 0.00
4:56 pm 16:56 Sunny 90 32.2 71 21.7 54 54 S 10 17 29.84 1011 10 16 0.00 0.00
5:56 pm 17:56 Sunny 90 32.2 72 22.2 56 56 S 9 15 29.85 1011 10 16 0.00 0.00
6:56 pm 18:56 Sunny 89 31.7 74 23.3 61 61 undefined N/A 29.84 1010 10 16 0.00 0.00
7:56 pm 19:56 Sunny 86 30 76 24.4 72 72 SE 5 7 29.84 1011 10 16 0.00 0.00
8:56 pm 20:56 Sunny 82 27.8 75 23.9 79 79 ESE 5 7 29.85 1011 10 16 0.00 0.00
9:56 pm 21:56 Clear 78 25.6 75 23.9 90 90 NE 8 13 29.87 1011 9 14 0.00 0.00
10:56 pm 22:56 Clear 78 25.6 73 22.8 85 85 SE 7 11 29.86 1011 10 16 0.00 0.00
11:56 pm 23:56 Clear 76 24.4 71 21.7 85 85 SSE 8 13 29.88 1012 10 16 0.00 0.00

Powered by AerisWeather